Location: Bouchavesnes-Bergen
(49.9859°N, 2.9203°E)
Time: 11:21:42
(UTC+00:00)

ATLAS 3B R/B - Pass Details

Date: 09 March 2021
Orbit: 1006 x 1189 km, 63.8° (Epoch: 01 April)

Event Time Altitude Azimuth Distance (km) Brightness Sun altitude
Exits shadow 01:22:12 25° 343° (NNW) 1,992 4.3 -41.2°
Maximum altitude 01:23:06 26° 355° (N) 1,970 4.4 -41.1°
Drops below altitude 10° 01:28:45 10° 50° (NE) 2,943 5.6 -40.7°
Sets 01:32:01 0° 63° (ENE) 3,934 6.3 -40.4°
